Regional Weather Roundup
Issued by NWS

Home | Current Version | Previous Version | Graphics & Text | Print | Product List | Glossary On
Versions: 1 2 3 4 5 6 7 8 9 10 11 12 13 14 15 16 17 18 19 20 21 22 23 24 25 26 27 28 29 30 31 32 33 34 35 36 37 38 39 40 41 42 43 44 45 46 47 48 49 50
000
ASUS43 KMKX 231321
RWRWI

WISCONSIN REGIONAL WEATHER ROUNDUP
NATIONAL WEATHER SERVICE MILWAUKEE/SULLIVAN WI
800 AM CDT FRI JUN 23 2017

NOTE: "FAIR" INDICATES FEW OR NO CLOUDS BELOW 12,000 FEET WITH NO
SIGNIFICANT WEATHER AND/OR OBSTRUCTIONS TO VISIBILITY.

WIZ001-002-006>008-014>016-023>028-231400-
NORTHWEST WISCONSIN

CITY           SKY/WX    TMP DP  RH WIND       PRES   REMARKS
SUPERIOR ARPT  NOT AVBL
ASHLAND        SUNNY     62  50  64 W9        29.66R
HAYWARD        SUNNY     60  49  66 VRB6      29.69S
SIREN          SUNNY     60  49  65 NW9       29.72R
CUMBERLAND     SUNNY     59  48  67 NW9       29.72S
RICE LAKE      SUNNY     62  52  70 W7        29.73S
CHETEK         SUNNY     61  53  75 NW7       29.71S
LADYSMITH      SUNNY     60  55  81 W7        29.72R
EAU CLAIRE     SUNNY     63  58  83 W9        29.71S
MENOMONIE      SUNNY     63  55  75 W7        29.74R
NEW RICHMOND   SUNNY     61  49  64 NW14      29.75R
OSCEOLA        SUNNY     61  50  66 W7        29.77R
$$

WIZ003>005-009-010-017-018-231400-
NORTH CENTRAL WISCONSIN

CITY           SKY/WX    TMP DP  RH WIND       PRES   REMARKS
MANITOWISH WTR SUNNY     58  54  86 W8        29.67S
ARBOR VITAE    SUNNY     62  56  81 W5        29.67S
WOODRUFF       SUNNY     62  56  81 W5        29.67S
RHINELANDER    SUNNY     61  58  90 W7        29.68S
EAGLE RIVER    SUNNY     58  58 100 W7        29.67S
LAND O LAKES   SUNNY     62  52  69 W6        29.67F
PHILLIPS       SUNNY     59  55  85 W3        29.68S
TOMAHAWK       NOT AVBL
MEDFORD        SUNNY     60  56  87 SW7       29.71S
MERRILL        SUNNY     63  58  85 W5        29.70S
$$

WIZ029-030-035-036-043>047-231400-
CENTRAL WISCONSIN

CITY           SKY/WX    TMP DP  RH WIND       PRES   REMARKS
WAUSAU         SUNNY     62  59  90 SW3       29.68S
MOSINEE        MOSUNNY   63  63 100 W7        29.71S
MARSHFIELD     SUNNY     63  59  87 W9        29.70S
STEVENS POINT  SUNNY     63  60  89 W5        29.70S
WAUPACA        SUNNY     67  64  90 W8        29.70R
WAUTOMA        CLOUDY    65  62  90 W9        29.71R
WISC RAPIDS    MOSUNNY   65  62  90 W6        29.72R
CAMP DOUGLAS   MOSUNNY   64  64 100 W6        29.72R
$$

WIZ011>013-019>022-031-037>040-048>050-231400-
NORTHEAST WISCONSIN

CITY           SKY/WX    TMP DP  RH WIND       PRES   REMARKS
ANTIGO         SUNNY     61  58  90 W5        29.69S
SHAWANO        SUNNY     66  61  84 W7        29.67S
OCONTO         CLOUDY    66  62  86 W6        29.64S
STURGEON BAY     N/A     65  61  87 NW7         N/A
GREEN BAY      CLOUDY    67  64  90 NW7       29.66F
MANITOWOC      PTSUNNY   66  62  87 W9        29.65F
APPLETON       MOSUNNY   64  63  94 W9        29.66F
CLINTONVILLE   SUNNY     64  61  88 W7        29.68R
OSHKOSH        MOSUNNY   66  62  87 W8        29.68S
$$

WIZ032>034-041-042-053>061-231400-
SOUTHWEST WISCONSIN

CITY           SKY/WX    TMP DP  RH WIND       PRES   REMARKS
LA CROSSE      SUNNY     67  60  78 SW5       29.73S
SPARTA         CLOUDY    60  60 100 W5        29.73F FOG
VIROQUA        SUNNY     62  62 100 W5        29.76R
BOSCOBEL       CLOUDY    65  64  97 SW6       29.76R FOG
PRAIRIE DU CHI PTSUNNY   66  63  89 W5        29.76R
PLATTEVILLE    CLOUDY    65  64  99 NW7       29.75R
$$

WIZ056-057-062-063-064-067-068-231400-
SOUTH CENTRAL WISCONSIN

CITY           SKY/WX    TMP DP  RH WIND       PRES   REMARKS
REEDSBURG      MOSUNNY   64  64 100 W7        29.73R
BARABOO/DELLS  MOSUNNY   64  63  95 W6        29.73R
LONE ROCK      CLOUDY    65  64  97 W6        29.74R FOG
MINERAL POINT  MOSUNNY   64  64 100 W5        29.75R
MADISON        CLOUDY    66  63  90 W5        29.71R
MIDDLETON      CLOUDY    67  64  91 NW5       29.73R
WATERTOWN      MOSUNNY   65  65  98 W7        29.70R
MONROE         CLOUDY    64  61  88 N5        29.73R
JANESVILLE     PTSUNNY   64  64 100 NW6       29.70R
$$

WIZ051-052-058>065-066-070>072-231400-
SOUTHEAST WISCONSIN

CITY           SKY/WX    TMP DP  RH WIND       PRES   REMARKS
MILWAUKEE      CLOUDY    68  62  81 NW8       29.68R
WAUKESHA       SUNNY     63  61  94 W8        29.74R
MILWAUKEE/TIMM SUNNY     64  59  82 NW5       29.68R
RACINE         CLOUDY    67  64  90 W7        29.70R
KENOSHA        CLOUDY    67  64  90 NW6       29.69R
FOND DU LAC    CLOUDY    67  62  84 NW8       29.68F
SHEBOYGAN      CLOUDY    67  64  90 NW8       29.66S
WEST BEND      CLOUDY    64  63  94 NW8       29.68R
JUNEAU         CLOUDY    65  63  92 CALM      29.71R
$$

LSZ147-162-231400-
LAKE SUPERIOR

STATION/POSITION TIME  TEMP    WIND        PRES    WAVE
                       AIR SEA DIR/SP/G            HT/PER
                 (UTC) (F)     (DEG/KT/KT) (MB)    (FT/S)
W MID LAKE BUOY  1250   47 39  250/ 14/ 16 1002.1F   1/ 3
DEVILS ISLAND    1300   55     240/ 15/ 17 1003.4R
SAXON HARBOR     1240   63     250/  5/ 10 1003.7R
$$

LMZ867-665-643>646-231400-
LAKE MICHIGAN

STATION/POSITION TIME  TEMP    WIND        PRES    WAVE
                       AIR SEA DIR/SP/G            HT/PER
                 (UTC) (F)     (DEG/KT/KT) (MB)    (FT/S)
CHAMBERS ISLAND  1240   65     240/  4/  7 1003.4F
S GREEN BAY BUOY 1300   65     260/  8/ 10 1003.6
N MID LAKE BUOY  1250   59 56  280/ 12/ 14 1003.1F   1/ 4
NORTHPORT PIER   1240   64     300/  7/ 10 1003.4S
KEWAUNEE LAKESHO 1254   66     290/  5/  9 1003.4F
SHEBOYGAN LAKESH 1300   66     290/ 10/ 14 1003.8R
PORT WASHINGTON  1230   67     300/  6/ 10 1005.1S
ATWATER BUOY     1239   61 59  290/  8/  8 1005.0S
MILWAUKEE LAKESH 1300   66     300/  5/  6   N/A
S MID LAKE BUOY  1250   62 61  350/  8/ 10 1004.2F   1/ 4
KENOSHA   LAKESH 1300   66     290/  2/  5 1005.4
$$

TC  - TEMPERATURE IN CELSIUS
VSB - VISIBILITY IN STATUTE MILES
WCI - WIND CHILL INDEX
HX  - HEAT INDEX




USA.gov is the U.S. government's official web portal to all federal, state and local government web resources and services.